"Pseudo-MPEC" for C0UN935

Created 2024 Oct 31 11:31:05 UT using Find_Orb

Click here for an explanation of pseudo-MPECs

 
 Astrometry: 
     C0UN935* C2024 10 27.43877803 24 11.372+23 52 29.64   ~ARBH 22.29GVNEOCPV00
     C0UN935  C2024 10 27.44438703 24 10.703+23 51 51.52   ~ARBH 22.08GVNEOCPV00
     C0UN935  C2024 10 27.45000103 24 10.058+23 51 12.31   ~ARBH 21.77GVNEOCPV00
     C0UN935  C2024 10 27.45561103 24 09.410+23 50 33.40   ~ARBH 22.00GVNEOCPV00
     C0UN935 KC2024 10 27.50063 03 24 04.26 +23 45 21.0    ~ARCl 22.2 RVNEOCP291
     C0UN935 KC2024 10 27.51198 03 24 03.05 +23 44 02.7    ~ARCl 21.5 RVNEOCP291
     C0UN935 KC2024 10 28.27400103 22 56.10 +22 15 51.0    ~AS7V 22.1 GVNEOCPH21
     C0UN935 KC2024 10 28.28266903 22 55.04 +22 14 50.2    ~AS7V 22.0 GVNEOCPH21
     C0UN935 KC2024 10 28.36359 03 22 46.84 +22 05 28.3    ~AS9l       VNEOCP291
     C0UN935 KC2024 10 28.36958 03 22 46.05 +22 04 46.0    ~AS9l 22.3 RVNEOCP291
     C0UN935 KC2024 10 28.37557 03 22 45.22 +22 04 04.8    ~AS9l 22.1 RVNEOCP291
     C0UN935 KC2024 10 30.30858303 19 35.860+18 08 42.40   ~AU7l 22.24GVNEOCPV06
     C0UN935 KC2024 10 30.31133503 19 35.510+18 08 21.90   ~AU7l 21.64GVNEOCPV06
     C0UN935 KC2024 10 30.31408803 19 35.160+18 08 00.90   ~AU7l 21.94GVNEOCPV06
     C0UN935 KC2024 10 31.20222 03 18 06.23 +16 15 08.4    ~AV5V 21.9 RVNEOCP291
     C0UN935 KC2024 10 31.20563 03 18 05.80 +16 14 42.0    ~AV5V 21.6 RVNEOCP291
     C0UN935 KC2024 10 31.20911 03 18 05.36 +16 14 15.6    ~AV5V 21.9 RVNEOCP291

Station data:
(291) LPL/Spacewatch II  (N31.961669 W111.599905)  US/Arizona.  Observers J.
   V. Scotti, R. S. McMillan. 1.8-m f/2.7 reflector + CCD.
(H21) Astronomical Research Observatory, Westfield  (N39.483054 W87.968270)
   US/Illinois.  Observer R. Holmes. Measurers S. Foglia, L. Buzzi, T.
   Linder, R. Holmes. 0.76-m f/3.0 astrograph + CCD0.81-m f/4.0 astrograph +
   CCD0.61-m f/4.5 astrograph + CCD0.40-m f/5.32 astrograph + CCD.
(V00) Kitt Peak-Bok  (N31.963125 W111.600190)  US/Arizona.  Observers T. A.
   Pruyne, B. M. Africano, E. J. Christensen, G. A. Farneth, D. C. Fuls, A.
   R. Gibbs, A. D. Grauer, H. Gröller, J. A. Johnson, R. A. Kowalski, S. M.
   Larson, G. J. Leonard, D. Rankin, R. L. Seaman, F. C. Shelly, K. W.
   Wierzchoś. 2.25-m reflector + 4x4K mosaic CCD.
(V06) Catalina Sky Survey-Kuiper  (N32.416871 W110.732550)  US/Arizona.
   Observers T. A. Pruyne, B. M. Africano, E. J. Christensen, G. A. Farneth,
   D. C. Fuls, A. R. Gibbs, A. D. Grauer, H. Gröller, J. A. Johnson, R. A.
   Kowalski, S. M. Larson, G. J. Leonard, D. Rankin, R. L. Seaman, F. C.
   Shelly, K. W. Wierzchoś. 1.55-m reflector + CCD.

Orbital elements:  C0UN935
   Perihelion 2025 Mar 29.84533 +/- 0.0623 TT = 20:17:16 (JD 2460764.34533)
Epoch 2024 Oct 31.0 TT = JDT 2460614.5   Earth MOID: 0.0805      AutoNEOCP
M 215.25671748 +/- 0.14             (J2000 ecliptic)
n   0.96595121 +/- 0.000809         Peri.  331.19949 +/- 0.09
a   1.01352061 +/- 0.000566         Node   218.40719 +/- 0.013
e   0.0964880 +/- 0.000603          Incl.   13.16361 +/- 0.14
P   1.020/372.683d         H 26.03  G  0.15   U  8.0
q 0.91572796 +/- 0.000161    Q 1.11131326 +/- 0.00122
From 17 observations 2024 Oct. 27-31; mean residual 0".45
Residuals in arcseconds: 
241027 V00  .10+  .70-    241028 H21  .32+  .14-    241030 V06  .01-  .29+    
241027 V00  .01-  .02-    241028 H21  .42+  .11+    241030 V06  .20+  .05-    
241027 V00  .16+  .35-    241028 291  .24+  .71-    241031 291  .07+  .19+    
241027 V00  .24+  .38-    241028 291  .26-  .56-    241031 291  .03+  .25-    
241027 291  .37-  .42+    241028 291  1.3-  .74+    241031 291  .00   .14-    
241027 291  .07+  1.4+    241030 V06  .21-  .14+    

Ephemerides (geocentric):
Date (UTC) HH   RA             Dec           delta  r     elong  mag " sig PA
---- --------  ------------   ------------  ------ ------ -----  --- --------
2024 10 31 12  03 17 31.251   +15 37 14.65  .10558 1.0958 166.9 22.1 .700 119
2024 10 31 13  03 17 26.854   +15 31 51.21  .10553 1.0957 166.9 22.1 .718 119
2024 10 31 14  03 17 22.452   +15 26 27.46  .10548 1.0957 167.0 22.1 .735 119
2024 10 31 15  03 17 18.046   +15 21 03.40  .10543 1.0957 167.0 22.1 .753 119
2024 10 31 16  03 17 13.636   +15 15 39.04  .10538 1.0956 167.1 22.1 .772 119
2024 10 31 17  03 17 09.221   +15 10 14.38  .10534 1.0956 167.2 22.0 .790 119
2024 10 31 18  03 17 04.802   +15 04 49.41  .10529 1.0956 167.2 22.0 .808 119
2024 10 31 19  03 17 00.378   +14 59 24.14  .10524 1.0955 167.3 22.0 .827 119
2024 10 31 20  03 16 55.950   +14 53 58.58  .10519 1.0955 167.4 22.0 .846 119
2024 10 31 21  03 16 51.518   +14 48 32.73  .10515 1.0955 167.4 22.0 .865 119
2024 10 31 22  03 16 47.082   +14 43 06.58  .10510 1.0954 167.5 22.0 .884 119
2024 10 31 23  03 16 42.641   +14 37 40.14  .10506 1.0954 167.5 22.0 .903 119
2024 11 01 00  03 16 38.197   +14 32 13.42  .10501 1.0954 167.6 22.0 .923 119
2024 11 01 01  03 16 33.748   +14 26 46.41  .10497 1.0953 167.6 22.0 .943 119
2024 11 01 02  03 16 29.295   +14 21 19.12  .10492 1.0953 167.7 22.0 .963 119
2024 11 01 03  03 16 24.837   +14 15 51.55  .10488 1.0952 167.7 22.0 .983 119
2024 11 01 04  03 16 20.376   +14 10 23.71  .10483 1.0952 167.8 22.0 1.00 119
2024 11 01 05  03 16 15.911   +14 04 55.59  .10479 1.0952 167.9 22.0 1.02 119
2024 11 01 06  03 16 11.442   +13 59 27.19  .10475 1.0951 167.9 22.0 1.04 119
2024 11 01 07  03 16 06.968   +13 53 58.53  .10470 1.0951 168.0 22.0 1.06 119
2024 11 01 08  03 16 02.491   +13 48 29.60  .10466 1.0951 168.0 22.0 1.09 119
2024 11 01 09  03 15 58.010   +13 43 00.40  .10462 1.0950 168.1 22.0 1.11 120
2024 11 01 10  03 15 53.525   +13 37 30.95  .10458 1.0950 168.1 22.0 1.13 120
2024 11 01 11  03 15 49.036   +13 32 01.23  .10454 1.0950 168.1 22.0 1.15 120
2024 11 01 12  03 15 44.544   +13 26 31.25  .10450 1.0949 168.2 22.0 1.17 120
2024 11 01 13  03 15 40.047   +13 21 01.02  .10446 1.0949 168.2 22.0 1.19 120
2024 11 01 14  03 15 35.547   +13 15 30.54  .10442 1.0949 168.3 22.0 1.22 120
2024 11 01 15  03 15 31.043   +13 09 59.81  .10438 1.0948 168.3 22.0 1.24 120
2024 11 01 16  03 15 26.535   +13 04 28.83  .10434 1.0948 168.4 22.0 1.26 120
2024 11 01 17  03 15 22.024   +12 58 57.61  .10430 1.0948 168.4 22.0 1.28 121
2024 11 01 18  03 15 17.509   +12 53 26.15  .10426 1.0947 168.5 22.0 1.31 121
2024 11 01 19  03 15 12.990   +12 47 54.45  .10422 1.0947 168.5 22.0 1.33 121
2024 11 01 20  03 15 08.468   +12 42 22.51  .10418 1.0947 168.5 22.0 1.35 121
2024 11 01 21  03 15 03.942   +12 36 50.33  .10415 1.0946 168.6 22.0 1.38 121
2024 11 01 22  03 14 59.413   +12 31 17.93  .10411 1.0946 168.6 22.0 1.40 121
2024 11 01 23  03 14 54.880   +12 25 45.29  .10407 1.0945 168.6 22.0 1.42 121
2024 11 02 00  03 14 50.344   +12 20 12.43  .10404 1.0945 168.7 22.0 1.45 122
2024 11 02 01  03 14 45.804   +12 14 39.35  .10400 1.0945 168.7 22.0 1.47 122
2024 11 02 02  03 14 41.261   +12 09 06.05  .10397 1.0944 168.7 22.0 1.50 122
2024 11 02 03  03 14 36.714   +12 03 32.52  .10393 1.0944 168.8 22.0 1.52 122
2024 11 02 04  03 14 32.165   +11 57 58.79  .10390 1.0944 168.8 22.0 1.55 122
2024 11 02 05  03 14 27.611   +11 52 24.84  .10386 1.0943 168.8 22.0 1.57 123
2024 11 02 06  03 14 23.055   +11 46 50.68  .10383 1.0943 168.8 22.0 1.60 123
2024 11 02 07  03 14 18.495   +11 41 16.31  .10379 1.0943 168.9 22.0 1.62 123
2024 11 02 08  03 14 13.932   +11 35 41.74  .10376 1.0942 168.9 22.0 1.65 123
2024 11 02 09  03 14 09.366   +11 30 06.97  .10373 1.0942 168.9 22.0 1.68 123
2024 11 02 10  03 14 04.797   +11 24 32.00  .10369 1.0941 168.9 22.0 1.70 123
2024 11 02 11  03 14 00.225   +11 18 56.83  .10366 1.0941 169.0 21.9 1.73 124